Regional Weather Roundup
Issued by NWS

Home | Current Version | Previous Version | Text Only | Print | Product List | Glossary On
Versions: 1 2 3 4 5 6 7 8 9 10 11 12 13 14 15 16 17 18 19 20 21 22 23 24 25 26 27 28 29 30 31 32 33 34 35 36 37 38 39 40 41 42 43 44 45 46 47 48 49 50
000
ASUS43 KDTX 222301
RWRMI
MICHIGAN HOURLY REGIONAL WEATHER ROUNDUP
NATIONAL WEATHER SERVICE DETROIT/PONTIAC MI
600 PM EST MON DEC 22 2014

NOTE: "FAIR" INDICATES FEW OR NO CLOUDS BELOW 12,000 FEET WITH NO
SIGNIFICANT WEATHER AND/OR OBSTRUCTION TO VISIBILITY.

MIZ047>049-052>055-059>063-066>070-074>076-081>083-230000-
SOUTHEAST LOWER MICHIGAN

CITY           SKY/WX    TMP DP  RH WIND       PRES   REMARKS
ADRIAN         CLOUDY    34  30  85 E12       29.90F WCI  25
ALMA           CLOUDY    35  30  82 E6        29.91S WCI  30
ANN ARBOR      CLOUDY    36  30  79 E8        29.92S WCI  30
BAD AXE        CLOUDY    32  30  92 SE5       29.98R WCI  27
CARO           CLOUDY    33  29  85 E9        29.95S WCI  26
DETROIT CITY   MOCLDY    36  29  75 E9        29.95F WCI  29
DETROIT        CLOUDY    35  30  82 E8        29.94F WCI  29
FLINT          MOCLDY    37  28  70 E12       29.93S WCI  29
GROSSE ILE     MOCLDY    36  30  80 E6        29.92F WCI  31
HILLSDALE      CLOUDY    35  33  92 E13       29.85F WCI  26
HOWELL         CLOUDY    35  29  80 E8        29.90S WCI  28

CITY           SKY/WX    TMP DP  RH WIND       PRES   REMARKS
JACKSON        LGT RAIN  35  30  82 E10       29.88S WCI  27
LAMBERTVILLE   CLOUDY    36  32  87 E9        29.91F WCI  29
LANSING        CLOUDY    37  29  72 E9        29.89F WCI  30
LAPEER         FAIR      34  29  82 E5        29.94F WCI  30
MASON          LGT RAIN  36  29  77 SE9       29.89S WCI  29
MONROE         CLOUDY    36  30  80 E9        29.91S WCI  29
MT. CLEMENS    MOCLDY    34  33  99 E9        29.94F WCI  26
PONTIAC        MOCLDY    34  29  82 E10       29.92S WCI  26
PORT HOPE        N/A     34  28  79 E17       29.96F WCI  23
PORT HURON     PTCLDY    34  30  86 E8        29.97F WCI  27
TRI CITIES     MOCLDY    36  28  73 E10       29.94F WCI  28
TROY           MOCLDY    37  31  80 E9        29.96S WCI  30
SAGINAW HB     MOCLDY    34  30  86 E7        29.94R WCI  28
$$
MIZ043>046-050>051-056>058-064>065-071>073-077>080-230000-
SOUTHWEST LOWER MICHIGAN

CITY           SKY/WX    TMP DP  RH WIND       PRES   REMARKS
BATTLE CREEK   CLOUDY    37  31  78 E10       29.84S WCI  30
BENTON HARBOR  LGT RAIN  36  35  96 E12G22    29.77F FOG     WCI  28
BIG RAPIDS     FLURRIES  34  29  84 E10       29.87S WCI  26
COLDWATER      CLOUDY    35  32  87 MISG      29.83F
FREMONT        MIX PCPN  33  32  94 E10G18    29.83S WCI  25
HOLLAND        LGT RAIN  37  34  89 E14       29.82S FOG     WCI  28
GRAND RAPIDS   LGT RAIN  35  31  85 E14       29.84F FOG     WCI  26
IONIA          LGT RAIN  36  31  83 E9        29.87F WCI  29
KALAMAZOO      CLOUDY    37  32  82 E10G17    29.82S WCI  30
LUDINGTON      LGT RAIN  36  30  79 E14       29.84S WCI  27
MARSHALL       LGT RAIN  34  32  92 E9        29.84F WCI  26
MOUNT PLEASANT CLOUDY    33  28  80 E5        29.92S WCI  29
MUSKEGON       LGT RAIN  36  32  85 E13G23    29.82F FOG     WCI  27
SOUTH HAVEN    RAIN      37  34  90 E9        29.79F WCI  30
$$
MIZ016>042-230000-
NORTHERN LOWER MICHIGAN

CITY           SKY/WX    TMP DP  RH WIND       PRES   REMARKS
ALPENA         CLOUDY    32  28  85 SE6       30.00S WCI  26
BEAVER ISLAND  MOCLDY    34  28  77 E9        29.93S WCI  27
BELLAIRE       CLOUDY    35  26  69 E5        29.92S WCI  31
CADILLAC       CLOUDY    31  26  81 E14       29.87R WCI  20
CHARLEVOIX     CLOUDY    34  27  76 E12       29.95S WCI  25
FRANKFORT      CLOUDY    35  27  70 E8        29.86S WCI  29
GAYLORD        CLOUDY    29  24  82 E6        29.92S WCI  23
GRAYLING       CLOUDY    31  26  81 E10       29.93F WCI  22
HARBOR SPRINGS MOCLDY    32  26  79 E10       29.95S WCI  23
HOUGHTON LAKE  CLOUDY    30  24  78 E9        29.92F WCI  22
MANISTEE       CLOUDY    36  25  64 E13       29.85F WCI  27
OSCODA         CLOUDY    33  28  82 E7        29.98F WCI  27
PELLSTON       CLOUDY    32  26  78 E10       29.96S WCI  24
ROGERS CITY    CLOUDY    32  29  88 SE9       30.01R WCI  25
TRAVERSE CITY  CLOUDY    35  26  69 E8        29.89F WCI  29
$$
MIZ007>008-015-230000-
EASTERN UPPER MICHIGAN

CITY           SKY/WX    TMP DP  RH WIND       PRES   REMARKS
KINROSS        CLOUDY    34  30  86 E14       29.99R WCI  24
MACKINAC ISLAN CLOUDY    33  28  79 SE9G21    29.97S WCI  26
NEWBERRY       PTCLDY    30  28  93 E12       29.94F WCI  21
S. S. MARIE    CLOUDY    33  27  78 E8        29.99S WCI  26
MUNISING         N/A     35  27  72 S8        29.90S WCI  29
$$
MIZ004>006-011>014-085-230000-
CENTRAL UPPER MICHIGAN

CITY           SKY/WX    TMP DP  RH WIND       PRES   REMARKS
MANISTIQUE     CLOUDY    33  30  87 E10       29.92S WCI  25
ESCANABA       CLOUDY    36  28  75 E9        29.87S WCI  29
MENOMINEE      CLOUDY    36  28  75 SE7       29.83S WCI  30
SAWYER-GWINN   CLOUDY    32  30  93 SE10      29.85F FOG     WCI  24
$$
MIZ001>003-009>011-084-230000-
WESTERN UPPER MICHIGAN

CITY           SKY/WX    TMP DP  RH WIND       PRES   REMARKS
IRON MOUNTAIN  CLOUDY    33  29  85 E8        29.82R WCI  26
HOUGHTON       CLOUDY    35  32  88 SE9       29.81R WCI  28
COPPER HARBOR    N/A     36  32  85 SW12G21   29.85R WCI  28
IRONWOOD       CLOUDY    36  32  87 E8        29.72R WCI  29
$$

ABBREVIATIONS USED IN REMARKS
   TC - TEMPERATURE IN CELSIUS
  WCI - WIND CHILL INDEX
   HX - HEAT INDEX
  VSB - VISIBILITY



USA.gov is the U.S. government's official web portal to all federal, state and local government web resources and services.